FW8724 Weather Reports


time (UTC)temp
F
wind
direction
speed
knots
gust
knots
rain 1hr
in
rain 24hr
in
rain mn
in
humidity
%
barometer
mb
20260508011543 46 271 0.9 1.7 0.05 0.69 0.69 92 1002.8
20260508010038 46 244 0.0 1.7 0.06 0.68 0.68 92 1002.8
20260508004538 46 244 0.9 1.7 0.08 0.67 0.67 92 1002.7
20260508003045 46 244 0.0 1.7 0.08 0.66 0.66 92 1002.8
20260508001607 46 241 0.9 2.6 0.06 0.64 0.64 92 1002.9
20260508000047 46 221 1.7 6.1 0.04 0.62 0.62 91 1002.9
20260507234547 47 272 7.8 9.6 0.01 0.58 0.58 89 1002.8
20260507233046 49 249 2.6 6.1 0.00 0.58 0.58 91 1002.1
20260507231545 49 212 3.5 7.8 0.00 0.58 0.58 90 1002.1
20260507230044 52 212 10.4 18.2 0.00 0.58 0.58 84 1001.8
20260507224547 55 182 5.2 12.2 0.00 0.58 0.58 86 1001.2
20260507223039 55 153 8.7 11.3 0.00 0.58 0.58 86 1001.1
20260507221538 54 110 7.8 15.6 0.00 0.58 0.58 87 1001.0
20260507220048 55 139 7.8 15.6 0.00 0.58 0.58 87 1001.0
20260507214548 54 143 8.7 13.9 0.00 0.58 0.58 87 1001.1
20260507213044 54 134 9.6 18.2 0.00 0.58 0.58 88 1000.8
20260507211539 54 131 9.6 20.9 0.00 0.58 0.58 88 1000.8
20260507210041 54 146 10.4 17.4 0.01 0.58 0.58 88 1001.0
20260507204552 54 138 10.4 20.0 0.01 0.58 0.58 88 1000.9
20260507203048 55 158 9.6 17.4 0.06 0.58 0.58 88 1000.8
20260507201542 54 148 12.2 19.1 0.12 0.58 0.58 88 1000.4
20260507200043 54 124 12.2 20.9 0.13 0.57 0.57 89 1000.5
20260507194541 54 145 14.8 21.7 0.15 0.57 0.57 89 1000.9
20260507193039 54 91 13.0 20.9 0.15 0.52 0.52 89 1001.5
20260507191538 54 145 10.4 14.8 0.14 0.46 0.46 89 1003.1
20260507190052 54 121 10.4 16.5 0.19 0.44 0.44 89 1003.0
20260507184548 54 142 7.8 15.6 0.26 0.42 0.42 89 1003.0
20260507183044 54 148 4.3 13.0 0.31 0.36 0.36 89 1003.5
20260507181540 54 139 11.3 19.1 0.32 0.32 0.32 89 1003.6
20260507180039 54 193 5.2 12.2 0.25 0.25 0.25 90 1004.2
20260507174551 54 203 5.2 9.6 0.16 0.16 0.16 88 1004.3
20260507173046 55 136 7.8 22.6 0.05 0.05 0.05 87 1003.9
20260507171543 55 118 12.2 26.1 0.00 0.00 0.00 85 1002.9
20260507170049 56 139 15.6 27.8 0.00 0.00 0.00 83 1002.7
20260507164539 57 146 13.0 26.9 0.00 0.00 0.00 79 1002.9
20260507163040 57 180 13.0 23.5 0.00 0.00 0.00 79 1003.4
20260507161539 59 133 17.4 38.2 0.00 0.00 0.00 77 1003.3
20260507160046 59 154 14.8 31.3 0.00 0.00 0.00 77 1004.2
20260507154548 59 155 16.5 27.8 0.00 0.00 0.00 75 1004.2
20260507153049 60 164 13.9 27.8 0.00 0.00 0.00 75 1004.5
20260507151540 60 132 13.0 25.2 0.00 0.00 0.00 74 1005.2
20260507150041 59 159 14.8 26.1 0.00 0.00 0.00 76 1005.3
20260507144545 60 151 13.0 26.1 0.00 0.00 0.00 76 1005.7
20260507143047 60 204 13.0 33.0 0.00 0.00 0.00 77 1005.9
20260507141543 59 158 10.4 26.9 0.00 0.00 0.00 79 1006.1
20260507140045 59 164 13.0 28.7 0.00 0.00 0.00 79 1006.2
20260507134544 58 153 8.7 28.7 0.00 0.00 0.00 80 1006.7
20260507133039 58 175 11.3 24.3 0.00 0.00 0.00 81 1006.6
20260507131556 57 166 13.9 26.1 0.00 0.00 0.00 82 1006.8
20260507130101 57 136 14.8 30.4 0.00 0.00 0.00 81 1007.0
20260507124551 57 132 16.5 27.8 0.00 0.00 0.00 81 1007.1
20260507123042 57 186 17.4 29.5 0.00 0.00 0.00 82 1007.4
20260507121540 56 139 17.4 33.0 0.00 0.00 0.00 83 1006.9
20260507120042 57 136 13.0 27.8 0.00 0.00 0.00 82 1007.3
20260507114538 57 144 12.2 24.3 0.00 0.00 0.00 83 1007.6
20260507113038 57 202 13.0 24.3 0.00 0.00 0.00 83 1007.8
20260507111545 57 169 17.4 31.3 0.00 0.00 0.00 82 1008.6
20260507110043 57 234 12.2 26.9 0.00 0.00 0.00 82 1009.0
20260507104547 57 124 14.8 30.4 0.00 0.00 0.00 81 1008.0
20260507103046 57 101 15.6 29.5 0.00 0.00 0.00 82 1008.4
20260507101546 57 158 15.6 36.5 0.00 0.00 0.00 82 1008.7
20260507100047 56 153 18.2 34.8 0.00 0.00 0.00 82 1008.9
20260507094546 57 149 16.5 30.4 0.00 0.00 0.00 82 1008.1
20260507093048 57 159 13.0 22.6 0.00 0.00 0.00 82 1008.6
20260507091541 56 155 13.9 26.9 0.00 0.00 0.00 83 1009.6
20260507090039 56 193 17.4 31.3 0.00 0.00 0.00 83 1009.8
20260507084538 56 162 14.8 26.1 0.00 0.00 0.00 83 1009.8
20260507083047 56 160 7.0 12.2 0.00 0.00 0.00 82 1010.7
20260507081548 57 198 7.8 24.3 0.00 0.00 0.00 82 1010.5
20260507080051 57 153 14.8 23.5 0.00 0.00 0.00 81 1009.9
20260507074602 58 152 12.2 24.3 0.00 0.00 0.00 80 1010.4
20260507073039 58 148 8.7 20.0 0.00 0.00 0.00 80 1010.8
20260507071546 57 148 12.2 22.6 0.00 0.00 0.00 79 1011.4
20260507070046 58 165 14.8 21.7 0.00 0.00 0.00 79 1011.4
20260507064544 58 115 12.2 18.2 0.00 0.00 0.00 78 1011.3
20260507063043 57 151 7.8 17.4 0.00 0.00 0.00 77 1011.8
20260507061546 57 133 11.3 21.7 0.00 0.00 0.00 76 1011.6
20260507060040 57 96 12.2 19.1 0.00 0.00 0.00 75 1011.8
20260507054549 58 141 16.5 25.2 0.00 0.00 0.00 73 1011.5
20260507053050 58 98 13.9 21.7 0.00 0.00 0.00 69 1012.3
20260507051545 58 155 11.3 18.2 0.00 0.00 0.00 65 1013.0
20260507050042 58 131 14.8 23.5 0.00 0.00 0.00 65 1013.1
20260507044553 58 131 12.2 20.9 0.00 0.00 0.00 68 1013.5
20260507043049 58 151 13.0 20.9 0.00 0.00 0.00 70 1013.9
20260507041559 58 128 12.2 24.3 0.00 0.00 0.00 69 1014.2
20260507040050 59 135 12.2 20.9 0.00 0.00 0.00 68 1014.8
20260507034557 59 176 13.0 24.3 0.00 0.00 0.00 68 1015.2
20260507033053 58 162 8.7 17.4 0.00 0.00 0.00 69 1015.5
20260507031604 59 177 8.7 18.2 0.00 0.00 0.00 68 1015.9
20260507030053 59 117 6.1 20.9 0.00 0.00 0.00 68 1016.1
20260507024546 59 160 10.4 21.7 0.00 0.00 0.00 68 1016.3
20260507023046 59 111 9.6 17.4 0.00 0.00 0.00 67 1016.3
20260507021543 59 150 10.4 20.9 0.00 0.00 0.00 67 1016.5
20260507020040 59 159 8.7 21.7 0.00 0.00 0.00 67 1016.4
20260507014547 60 152 12.2 26.1 0.00 0.00 0.00 67 1016.4
20260507013038 60 141 11.3 25.2 0.00 0.00 0.00 67 1016.5